Вернуться в каталог

COSMOS 1823 DEB

АктивенLEO
NORAD 18742·DEBRIS·🇷🇺 Russia

Запущен Feb 20, 1987 с Plesetsk Cosmodrome

Loading…

Ближайшие Пролёты (ближайшие 24 часа)

TLE

СвежийSource: Space-Track

Эпоха: Sep 14, 2026, 12:39 UTC

1 18742U 87020V   26257.52722750  .00000181  00000-0  11531-2 0  9994
2 18742  73.5151  93.9853 0056550  13.4638  15.0451 12.59378988773080

Отслеживайте COSMOS 1823 DEB в реальном времени с AllMySat

Download on the App Store